This is the latest recevied weather packets stored in our database for station/object N5SRF. If no packets are shown the sender has not sent any weather packets the latest 1 day(s).
| Time | Temp. | Humidity | Pressure | Rain* | Wind** | Luminosity | Snow |
|---|---|---|---|---|---|---|---|
| 1778026531 | 26.67° C | 87% | 1010.7 hPa | 0 mm | 0 m/s | 32 W/m² | - |
| 1778026228 | 26.67° C | 87% | 1010.7 hPa | 0 mm | 0.89 m/s, 180° | 39 W/m² | - |
| 1778025925 | 26.67° C | 86% | 1010.6 hPa | 0 mm | 0.89 m/s, 157° | 36 W/m² | - |
| 1778025623 | 26.67° C | 86% | 1010.7 hPa | 0 mm | 1.34 m/s, 128° | 42 W/m² | - |
| 1778025320 | 27.22° C | 86% | 1010.8 hPa | 0 mm | 0.45 m/s, 204° | 56 W/m² | - |
| 1778025016 | 27.22° C | 86% | 1010.8 hPa | 0 mm | 1.79 m/s, 117° | 30 W/m² | - |
| 1778024713 | 27.22° C | 85% | 1010.7 hPa | 0 mm | 0.89 m/s, 161° | 44 W/m² | - |
| 1778024410 | 27.78° C | 84% | 1010.7 hPa | 0 mm | 0.45 m/s, 179° | 56 W/m² | - |
| 1778024108 | 27.78° C | 83% | 1010.6 hPa | 0 mm | 1.79 m/s, 160° | 91 W/m² | - |
| 1778023805 | 27.78° C | 83% | 1010.8 hPa | 0 mm | 0.89 m/s, 111° | 98 W/m² | - |
| 1778023503 | 27.78° C | 82% | 1010.8 hPa | 0 mm | 0.89 m/s, 190° | 91 W/m² | - |
| 1778023200 | 27.78° C | 82% | 1010.6 hPa | 0 mm | 0.89 m/s, 130° | 88 W/m² | - |
| 1778022897 | 27.78° C | 82% | 1010.8 hPa | 0 mm | 0.89 m/s, 163° | 131 W/m² | - |
| 1778022595 | 27.78° C | 83% | 1010.7 hPa | 0 mm | 1.34 m/s, 195° | 158 W/m² | - |
| 1778022292 | 27.78° C | 82% | 1010.7 hPa | 0 mm | 2.68 m/s, 154° | 121 W/m² | - |
| 1778021988 | 27.78° C | 83% | 1010.8 hPa | 0 mm | 0.45 m/s, 152° | 91 W/m² | - |
| 1778021686 | 27.78° C | 83% | 1010.6 hPa | 0 mm | 1.34 m/s, 179° | 68 W/m² | - |
| 1778021382 | 28.33° C | 81% | 1010.6 hPa | 0 mm | 2.24 m/s, 167° | 143 W/m² | - |
| 1778021079 | 28.33° C | 81% | 1010.7 hPa | 0 mm | 0.89 m/s, 182° | 137 W/m² | - |
| 1778020776 | 28.33° C | 80% | 1010.6 hPa | 0 mm | 0.89 m/s, 202° | 110 W/m² | - |
| 1778020473 | 28.33° C | 79% | 1010.7 hPa | 0 mm | 1.79 m/s, 165° | 151 W/m² | - |
| 1778020169 | 28.33° C | 80% | 1010.7 hPa | 0 mm | 2.24 m/s, 172° | 206 W/m² | - |
| 1778019866 | 28.89° C | 79% | 1011.1 hPa | 0 mm | 0.89 m/s, 155° | 143 W/m² | - |
| 1778019561 | 28.89° C | 80% | 1010.6 hPa | 0 mm | 0.45 m/s, 233° | 181 W/m² | - |
| 1778019259 | 28.89° C | 79% | 1010.7 hPa | 0 mm | 0.89 m/s, 159° | 139 W/m² | - |
* Rain latest hour (hover to see other rain measurements)
** Current wind speed in m/s (hover to see current wind gust speed)